Location: Newark
(47.0028°N, 8.6117°E)
Time: 04:31:39
(UTC+00:00)

ISS - Visible Passes

Search period start: 19 October 2019 00:00
Search period end: 29 October 2019 00:00
Orbit: 411 x 421 km, 51.6° (Epoch: 19 October)

Date Brightness Start Highest point End Pass type
(mag) Time Alt. Az. Time Alt. Az. Time Alt. Az.
24 Oct -0.9 04:49:13 10° S 04:51:23 16° SE 04:53:32 10° E visible
26 Oct -2.3 04:47:29 10° SSW 04:50:37 36° SE 04:53:45 10° ENE visible
27 Oct -1.7 04:00:51 19° S 04:02:08 23° SE 04:04:53 10° E visible
28 Oct -0.7 03:14:43 13° ESE 03:14:43 13° ESE 03:15:42 10° E visible
28 Oct -3.7 04:47:38 18° WSW 04:49:59 81° SSE 04:53:22 10° ENE visible
